Location: *
(60.1759°S, 155.0663°W)
Time: 12:33:41
(UTC+00:00)

Meteor 2-3 Rocket - Pass Details

Date: 17 September 2019
Orbit: 842 x 885 km, 81.2° (Epoch: 18 October)

Event Time Altitude Azimuth Distance (km) Brightness Sun altitude
Exits shadow 12:35:42 57° 17° (NNE) 1,056 3.9 -26.1°
Maximum altitude 12:36:51 73° 78° (ENE) 944 3.9 -26.0°
Drops below altitude 10° 12:42:45 10° 161° (SSE) 2,593 7.1 -25.5°
Sets 12:45:14 0° 162° (SSE) 3,537 8.0 -25.3°
